EW5586 Weather Reports


Display with metric or nautical units.
time (UTC)temp
F
wind
direction
speed
MPH
gust
MPH
rain 1hr
in
rain 24hr
in
rain mn
in
humidity
%
barometer
mb
20260507221421 48 211 12.0 20.0 0.00 0.00 0.00 70 1008.4
20260507220915 48 219 12.0 19.0 0.00 0.00 0.00 71 1008.4
20260507220409 48 217 12.0 16.0 0.00 0.00 0.00 71 1008.4
20260507215903 49 198 12.0 16.0 0.00 0.00 0.00 71 1008.5
20260507214351 49 219 13.0 19.0 0.00 0.00 0.00 70 1008.5
20260507213852 49 221 13.0 21.0 0.00 0.00 0.00 69 1008.5
20260507213352 49 234 13.0 21.0 0.00 0.00 0.00 67 1008.5
20260507212851 49 223 13.0 20.0 0.00 0.00 0.00 67 1008.5
20260507212353 49 205 14.0 20.0 0.00 0.00 0.00 68 1008.6
20260507211351 49 187 12.0 20.0 0.00 0.00 0.00 68 1008.4
20260507210851 49 208 12.0 19.0 0.00 0.00 0.00 66 1008.4
20260507210350 49 213 12.0 19.0 0.00 0.00 0.00 65 1008.5
20260507205849 49 193 13.0 21.0 0.00 0.00 0.00 67 1008.5
20260507205350 49 191 13.0 21.0 0.00 0.00 0.00 65 1008.4
20260507204350 49 227 15.0 22.0 0.00 0.00 0.00 61 1008.4
20260507203849 49 235 15.0 23.0 0.00 0.00 0.00 59 1008.4
20260507203349 49 0 14.0 23.0 0.00 0.00 0.00 61 1008.4
20260507202843 49 187 15.0 21.0 0.00 0.00 0.00 67 1008.5
20260507202339 49 212 15.0 21.0 0.00 0.00 0.00 63 1008.5
20260507201840 49 212 14.0 21.0 0.00 0.00 0.00 68 1008.5
20260507200840 49 216 14.0 20.0 0.00 0.00 0.00 66 1008.5
20260507200339 49 184 13.0 20.0 0.00 0.00 0.00 66 1008.5
20260507195839 49 213 13.0 20.0 0.00 0.00 0.00 67 1008.6
20260507195339 49 202 14.0 21.0 0.00 0.00 0.00 67 1008.6
20260507194840 49 208 14.0 21.0 0.00 0.00 0.00 64 1008.7
20260507194339 49 186 13.0 22.0 0.00 0.00 0.00 61 1008.7
20260507193839 49 194 14.0 22.0 0.00 0.00 0.00 64 1008.8
20260507193339 50 0 12.0 16.0 0.00 0.00 0.00 60 1008.8
20260507192840 51 198 13.0 19.0 0.00 0.00 0.00 51 1008.7
20260507192335 51 207 10.0 19.0 0.00 0.00 0.00 50 1008.8
20260507191835 51 0 8.0 15.0 0.00 0.00 0.00 51 1008.7
20260507191335 50 213 12.0 18.0 0.00 0.00 0.00 55 1008.7
20260507190335 50 196 11.0 20.0 0.00 0.00 0.00 58 1009.0
20260507185835 50 0 11.0 19.0 0.00 0.00 0.00 52 1008.9
20260507185335 50 185 10.0 18.0 0.00 0.00 0.00 58 1008.9
20260507184835 50 227 8.0 14.0 0.00 0.00 0.00 57 1008.9
20260507184335 50 199 11.0 19.0 0.00 0.00 0.00 54 1008.9
20260507183835 50 197 12.0 19.0 0.00 0.00 0.00 61 1008.9
20260507183335 51 0 9.0 17.0 0.00 0.00 0.00 59 1009.0
20260507182835 51 205 6.0 16.0 0.00 0.00 0.00 52 1009.1
20260507182335 52 196 6.0 14.0 0.00 0.00 0.00 48 1009.1
20260507181836 51 0 7.0 17.0 0.00 0.00 0.00 52 1009.0
20260507181335 53 220 6.0 17.0 0.00 0.00 0.00 48 1009.2
20260507180836 53 221 5.0 11.0 0.00 0.00 0.00 43 1009.2
20260507180336 53 229 3.0 12.0 0.00 0.00 0.00 41 1009.1
20260507175835 54 179 2.0 13.0 0.00 0.00 0.00 42 1009.1
20260507175336 54 273 2.0 13.0 0.00 0.00 0.00 45 1009.0
20260507174334 52 304 6.0 17.0 0.00 0.00 0.00 41 1009.2
20260507173835 53 234 3.0 15.0 0.00 0.00 0.00 39 1009.1
20260507173335 53 180 2.0 8.0 0.00 0.00 0.00 44 1009.1
20260507172835 53 251 4.0 10.0 0.00 0.00 0.00 48 1009.2
20260507172336 53 302 4.0 13.0 0.00 0.00 0.00 44 1009.2
20260507171835 53 223 3.0 13.0 0.00 0.00 0.00 44 1009.4
20260507171333 53 205 3.0 12.0 0.00 0.00 0.00 45 1009.3
20260507170334 54 242 2.0 10.0 0.00 0.00 0.00 43 1009.4
20260507165329 53 0 3.0 17.0 0.00 0.00 0.00 46 1009.4
20260507164830 53 224 3.0 13.0 0.00 0.00 0.00 43 1009.7
20260507162831 53 313 2.0 10.0 0.00 0.00 0.00 49 1009.5
20260507161829 52 211 4.0 18.0 0.00 0.00 0.00 47 1009.7
20260507160825 52 215 4.0 15.0 0.00 0.00 0.00 49 1009.9
20260507160328 52 113 3.0 10.0 0.00 0.00 0.00 45 1009.9
20260507155825 52 283 3.0 10.0 0.00 0.00 0.00 45 1010.0
20260507155325 52 331 3.0 17.0 0.00 0.00 0.00 48 1009.9
20260507154326 52 265 3.0 10.0 0.00 0.00 0.00 47 1010.0
20260507153326 52 111 3.0 11.0 0.00 0.00 0.00 50 1010.1
20260507152825 51 211 3.0 12.0 0.00 0.00 0.00 50 1010.2
20260507151321 50 190 5.0 16.0 0.00 0.00 0.00 52 1010.2
20260507150821 50 0 6.0 16.0 0.00 0.00 0.00 50 1010.3
20260507150322 51 223 4.0 13.0 0.00 0.00 0.00 50 1010.5
20260507145821 51 216 3.0 16.0 0.00 0.00 0.00 50 1010.5
20260507145321 51 260 3.0 16.0 0.00 0.00 0.00 53 1010.4
20260507144820 51 307 3.0 9.0 0.00 0.00 0.00 54 1010.5
20260507144321 51 211 2.0 9.0 0.00 0.00 0.00 53 1010.4
20260507143817 50 234 2.0 10.0 0.00 0.00 0.00 54 1010.5
20260507143317 50 287 2.0 10.0 0.00 0.00 0.00 55 1010.5
20260507142817 49 223 2.0 8.0 0.00 0.00 0.00 57 1010.5
20260507141815 49 301 3.0 12.0 0.00 0.00 0.00 57 1010.5
20260507141313 49 9 4.0 12.0 0.00 0.00 0.00 58 1010.5
20260507140813 49 242 4.0 12.0 0.00 0.00 0.00 56 1010.5
20260507140311 49 229 2.0 11.0 0.00 0.00 0.00 58 1010.6
20260507135811 49 261 3.0 12.0 0.00 0.00 0.00 57 1010.5
20260507135309 49 243 2.0 12.0 0.00 0.00 0.00 57 1010.6
20260507134807 49 229 2.0 12.0 0.00 0.00 0.00 61 1010.5
20260507133803 48 228 2.0 9.0 0.00 0.00 0.00 58 1010.6
20260507133302 48 331 2.0 9.0 0.00 0.00 0.00 61 1010.6
20260507132802 47 350 2.0 9.0 0.00 0.00 0.00 60 1010.5
20260507132301 47 302 2.0 7.0 0.00 0.00 0.00 57 1010.6
20260507131800 46 240 3.0 12.0 0.00 0.00 0.00 59 1010.7
20260507131259 46 284 3.0 12.0 0.00 0.00 0.00 59 1010.7
20260507130759 46 234 2.0 10.0 0.00 0.00 0.00 61 1010.8
20260507130258 45 247 3.0 14.0 0.00 0.00 0.00 61 1010.7
20260507125759 45 355 3.0 14.0 0.00 0.00 0.00 59 1010.6
20260507125258 45 285 3.0 13.0 0.00 0.00 0.00 60 1010.7
20260507124759 44 160 3.0 11.0 0.00 0.00 0.00 62 1010.7
20260507124259 44 211 3.0 14.0 0.00 0.00 0.00 62 1010.6
20260507123759 44 216 3.0 14.0 0.00 0.00 0.00 62 1010.6
20260507123259 44 238 2.0 10.0 0.00 0.00 0.00 64 1010.7
20260507122758 43 243 2.0 8.0 0.00 0.00 0.00 65 1010.7
20260507122259 43 243 2.0 10.0 0.00 0.00 0.00 66 1010.7
20260507121258 42 202 1.0 5.0 0.00 0.00 0.00 67 1010.7
20260507120753 42 341 1.0 9.0 0.00 0.00 0.00 68 1010.7
20260507120246 42 236 2.0 9.0 0.00 0.00 0.00 69 1010.7
20260507115742 42 355 2.0 9.0 0.00 0.00 0.00 70 1010.7
20260507115236 42 291 2.0 9.0 0.00 0.00 0.00 70 1010.7
20260507114222 41 26 1.0 7.0 0.00 0.00 0.00 71 1010.6
20260507113716 40 239 1.0 4.0 0.00 0.00 0.00 72 1010.6
20260507113211 40 206 2.0 10.0 0.00 0.00 0.00 73 1010.6
20260507112705 40 218 3.0 10.0 0.00 0.00 0.00 73 1010.7
20260507112159 40 233 2.0 8.0 0.00 0.00 0.00 74 1010.6
20260507110147 38 216 3.0 11.0 0.00 0.00 0.00 76 1010.6
20260507104646 38 221 2.0 8.0 0.00 0.00 0.00 78 1010.4
20260507104147 38 210 3.0 9.0 0.00 0.00 0.00 78 1010.4
20260507103646 37 237 4.0 9.0 0.00 0.00 0.00 78 1010.2
20260507103148 37 0 3.0 8.0 0.00 0.00 0.00 79 1010.2
20260507101622 0 0.0 0.0 0.00 0.00 0.00 1010.0
20260507101036 0 0.0 0.0 0.00 0.00 0.00 1010.0
20260507100527 0 0.0 0.0 0.00 0.00 0.00 1010.0
20260507095942 0 0.0 0.0 0.00 0.00 0.00 1010.0
20260507095442 0 0.0 0.0 0.00 0.00 0.00 1009.9
20260507094932 0 0.0 0.0 0.00 0.00 0.00 1010.0
20260507094346 0 0.0 0.0 0.00 0.00 0.00 1010.0
20260507093837 0 0.0 0.0 0.00 0.00 0.00 1009.9
20260507093332 0 0.0 0.0 0.00 0.00 0.00 1009.9
20260507092748 0 0.0 0.0 0.00 0.00 0.00 1010.0
20260507091744 0 0.0 0.0 0.00 0.00 0.00 1009.8
20260507091243 0 0.0 0.0 0.00 0.00 0.00 1009.9
20260507090646 0 0.0 0.0 0.00 0.00 0.00 1009.8
20260507085638 0 0.0 0.0 0.00 0.00 0.00 1009.8
20260507085044 0 0.0 0.0 0.00 0.00 0.00 1009.8
20260507084038 0 0.0 0.0 0.00 0.00 0.00 1009.5
20260507083446 0 0.0 0.0 0.00 0.00 0.00 1009.5
20260507082947 0 0.0 0.0 0.00 0.00 0.00 1009.4
20260507082438 0 0.0 0.0 0.00 0.00 0.00 1009.4
20260507081845 0 0.0 0.0 0.00 0.00 0.00 1009.7
20260507081248 0 0.0 0.0 0.00 0.00 0.00 1009.7
20260507080746 0 0.0 0.0 0.00 0.00 0.00 1009.8
20260507080244 0 0.0 0.0 0.00 0.00 0.00 1009.8
20260507075739 0 0.0 0.0 0.00 0.00 0.00 1009.8
20260507075152 0 0.0 0.0 0.00 0.00 0.00 1009.7
20260507074646 0 0.0 0.0 0.00 0.00 0.00 1009.7
20260507074140 0 0.0 0.0 0.00 0.00 0.00 1009.4
20260507073545 0 0.0 0.0 0.00 0.00 0.00 1009.4
20260507072946 0 0.0 0.0 0.00 0.00 0.00 1009.3
20260507072352 0 0.0 0.0 0.00 0.00 0.00 1009.1
20260507071846 0 0.0 0.0 0.00 0.00 0.00 1009.0
20260507071340 0 0.0 0.0 0.00 0.00 0.00 1008.9
20260507070838 0 0.0 0.0 0.00 0.00 0.00 1008.9
20260507070242 0 0.0 0.0 0.00 0.00 0.00 1009.0
20260507065741 0 0.0 0.0 0.00 0.00 0.00 1009.1
20260507065238 0 0.0 0.0 0.00 0.00 0.00 1009.1
20260507064644 0 0.0 0.0 0.00 0.00 0.00 1009.0
20260507064140 0 0.0 0.0 0.00 0.00 0.00 1009.0
20260507063544 0 0.0 0.0 0.00 0.00 0.00 1009.1
20260507062542 0 0.0 0.0 0.00 0.00 0.00 1009.0
20260507061449 0 0.0 0.0 0.00 0.01 0.00 1008.9
20260507060949 0 0.0 0.0 0.00 0.01 0.00 1009.0
20260507055347 0 0.0 0.0 0.00 0.01 0.00 1009.1
20260507054838 0 0.0 0.0 0.00 0.01 0.00 1009.1
20260507054246 0 0.0 0.0 0.00 0.01 0.00 1009.1
20260507053740 0 0.0 0.0 0.00 0.01 0.00 1009.2
20260507052140 0 0.0 0.0 0.00 0.01 0.00 1009.2
20260507051636 0 0.0 0.0 0.00 0.01 0.00 1009.2
20260507050538 0 0.0 0.0 0.00 0.01 0.00 1009.2
20260507050038 0 0.0 0.0 0.00 0.01 0.00 1009.2
20260507045534 0 0.0 0.0 0.00 0.01 0.00 1009.2
20260507044942 0 0.0 0.0 0.00 0.01 0.00 1009.2
20260507044438 0 0.0 0.0 0.00 0.01 0.00 1009.2
20260507043929 0 0.0 0.0 0.00 0.01 0.00 1009.2
20260507043339 0 0.0 0.0 0.00 0.01 0.00 1009.1
20260507042818 0 0.0 0.0 0.00 0.01 0.00 1009.1
20260507041739 0 0.0 0.0 0.00 0.01 0.00 1009.0
20260507041148 0 0.0 0.0 0.00 0.01 0.00 1009.0
20260507040643 0 0.0 0.0 0.00 0.01 0.00 1009.2
20260507040140 0 0.0 0.0 0.00 0.01 0.00 1009.1
20260507035639 0 0.0 0.0 0.00 0.01 0.01 1009.1
20260507035136 0 0.0 0.0 0.00 0.01 0.01 1009.0
20260507034545 0 0.0 0.0 0.00 0.01 0.01 1009.1
20260507033536 0 0.0 0.0 0.00 0.01 0.01 1009.2
20260507032945 0 0.0 0.0 0.00 0.01 0.01 1009.2
20260507032445 0 0.0 0.0 0.00 0.01 0.01 1009.2
20260507031942 0 0.0 0.0 0.00 0.01 0.01 1009.2
20260507031343 0 0.0 0.0 0.00 0.01 0.01 1009.2
20260507030845 0 0.0 0.0 0.00 0.01 0.01 1009.2
20260507030344 0 0.0 0.0 0.00 0.01 0.01 1009.3
20260507025836 0 0.0 0.0 0.00 0.01 0.01 1009.4
20260507025243 0 0.0 0.0 0.00 0.01 0.01 1009.4
20260507024144 0 0.0 0.0 0.00 0.01 0.01 1009.4
20260507023639 0 0.0 0.0 0.00 0.01 0.01 1009.5
20260507022542 0 0.0 0.0 0.00 0.01 0.01 1009.3
20260507022028 0 0.0 0.0 0.00 0.01 0.01 1009.4
20260507020938 0 0.0 0.0 0.00 0.01 0.01 1009.5
20260507020342 0 0.0 0.0 0.00 0.01 0.01 1009.7
20260507015840 0 0.0 0.0 0.00 0.01 0.01 1009.7
20260507015334 0 0.0 0.0 0.00 0.01 0.01 1009.7
20260507014740 0 0.0 0.0 0.00 0.01 0.01 1009.7
20260507014148 0 0.0 0.0 0.00 0.01 0.01 1009.7
20260507013639 0 0.0 0.0 0.00 0.01 0.01 1009.7
20260507013045 0 0.0 0.0 0.00 0.02 0.01 1009.8
20260507011527 0 0.0 0.0 0.00 0.02 0.01 1009.5
20260507010430 0 0.0 0.0 0.00 0.02 0.01 1009.5
20260507005836 0 0.0 0.0 0.00 0.04 0.01 1009.4
20260507005249 0 0.0 0.0 0.00 0.04 0.01 1009.3
20260507004232 0 0.0 0.0 0.00 0.05 0.01 1009.4
20260507003638 0 0.0 0.0 0.00 0.05 0.01 1009.5
20260507003048 0 0.0 0.0 0.00 0.05 0.01 1009.4
20260507002530 0 0.0 0.0 0.00 0.05 0.01 1009.3
20260507001941 0 0.0 0.0 0.00 0.05 0.01 1009.3
20260507001346 0 0.0 0.0 0.00 0.05 0.01 1009.2
20260507000840 0 0.0 0.0 0.00 0.05 0.01 1009.0
20260506235738 0 0.0 0.0 0.00 0.06 0.01 1009.1
20260506235236 0 0.0 0.0 0.00 0.06 0.01 1009.0
20260506234734 0 0.0 0.0 0.00 0.06 0.01 1009.0
20260506234148 0 0.0 0.0 0.00 0.06 0.01 1009.0
20260506232639 0 0.0 0.0 0.00 0.08 0.01 1009.0
20260506232137 0 0.0 0.0 0.00 0.09 0.01 1008.9
20260506231542 0 0.0 0.0 0.00 0.09 0.01 1009.0
20260506230450 0 0.0 0.0 0.00 0.09 0.01 1008.9
20260506225943 0 0.0 0.0 0.00 0.09 0.01 1008.9
20260506225432 0 0.0 0.0 0.00 0.09 0.01 1008.8
20260506224843 0 0.0 0.0 0.00 0.09 0.01 1008.8
20260506224246 0 0.0 0.0 0.00 0.09 0.01 1008.7
20260506223146 0 0.0 0.0 0.00 0.09 0.01 1008.8
20260506222639 0 0.0 0.0 0.00 0.09 0.01 1008.8
20260506222045 0 0.0 0.0 0.00 0.09 0.01 1008.8
20260506221542 0 0.0 0.0 0.00 0.09 0.01 1008.7